R2AJV-13 Weather Reports


time (UTC)temp
F
wind
direction
speed
knots
gust
knots
rain 1hr
in
rain 24hr
in
rain mn
in
humidity
%
barometer
mb
20260506160115 65 341 0.0 3.5 0.00 0.01 0.01 47 996.4
20260506154611 67 34 0.0 1.7 0.00 0.01 0.01 47 996.2
20260506153100 67 293 0.0 1.7 0.00 0.01 0.01 46 996.2
20260506151549 69 279 0.9 6.1 0.00 0.01 0.01 45 996.2
20260506150038 69 240 0.0 1.7 0.00 0.01 0.01 44 996.0
20260506144529 70 275 0.9 3.5 0.00 0.01 0.01 45 996.0
20260506143023 69 279 0.9 3.5 0.00 0.01 0.01 45 995.8
20260506141612 70 266 1.7 3.5 0.00 0.01 0.01 44 995.7
20260506134551 71 256 1.7 7.0 0.00 0.01 0.01 46 995.7
20260506133046 71 259 0.9 3.5 0.00 0.01 0.01 45 995.6
20260506131535 71 281 1.7 5.2 0.00 0.01 0.01 45 995.5
20260506130057 71 167 2.6 7.0 0.00 0.01 0.01 46 995.4
20260506124546 70 311 0.9 3.5 0.00 0.01 0.01 47 995.3
20260506121527 72 284 2.6 7.8 0.00 0.01 0.01 44 995.1
20260506120115 71 286 0.9 5.2 0.00 0.01 0.01 46 995.2
20260506114610 72 296 0.9 7.0 0.00 0.01 0.01 45 995.0
20260506113100 72 320 2.6 11.3 0.00 0.01 0.01 45 994.9
20260506111549 67 293 0.9 3.5 0.00 0.01 0.01 50 994.8
20260506110038 68 289 0.9 3.5 0.00 0.01 0.01 50 994.8
20260506103022 72 347 0.9 3.5 0.00 0.01 0.01 49 994.5
20260506101612 70 323 0.9 3.5 0.00 0.01 0.01 53 994.4
20260506094551 70 274 1.7 6.1 0.00 0.01 0.01 54 994.0
20260506093045 68 270 0.9 7.8 0.00 0.01 0.01 57 994.1
20260506090052 69 264 3.5 7.8 0.00 0.01 0.01 56 993.9
20260506084547 68 209 2.6 9.6 0.01 0.01 0.01 59 994.0
20260506083037 67 248 2.6 7.0 0.01 0.01 0.01 59 993.9
20260506081527 67 270 0.9 3.5 0.01 0.01 0.01 64 994.0
20260506073100 63 280 1.7 5.2 0.00 0.00 0.00 72 993.8
20260506071550 60 260 1.7 3.5 0.00 0.00 0.00 79 993.8
20260506061612 56 293 0.0 0.0 0.00 0.00 0.00 89 993.5
20260506050104 60 257 1.7 3.5 0.00 0.00 0.00 73 993.3
20260506044559 60 252 0.9 3.5 0.00 0.00 0.00 73 993.1
20260506043048 59 262 0.9 3.5 0.00 0.00 0.00 77 992.9